TimeEDT,TemperatureF,Dew PointF,Humidity,Sea Level PressureIn,VisibilityMPH,Wind Direction,Wind SpeedMPH,Gust SpeedMPH,PrecipitationIn,Events,Conditions,WindDirDegrees,DateUTC
12:09 AM,39.2,37.4,93,29.49,5.0,Calm,Calm,-,N/A,,Overcast,0,2012-10-31 04:09:00
12:30 AM,39.2,37.4,93,29.49,3.0,Calm,Calm,-,N/A,,Overcast,0,2012-10-31 04:30:00
12:51 AM,39.2,37.4,93,29.49,5.0,Calm,Calm,-,N/A,,Overcast,0,2012-10-31 04:51:00
1:12 AM,39.2,37.4,93,29.50,7.0,Calm,Calm,-,N/A,,Overcast,0,2012-10-31 05:12:00
1:33 AM,39.2,37.4,93,29.49,7.0,Calm,Calm,-,N/A,,Overcast,0,2012-10-31 05:33:00
1:54 AM,37.4,37.4,100,29.49,5.0,Calm,Calm,-,N/A,,Scattered Clouds,0,2012-10-31 05:54:00
2:15 AM,37.4,35.6,93,29.50,4.0,Calm,Calm,-,N/A,,Scattered Clouds,0,2012-10-31 06:15:00
4:03 AM,37.4,37.4,100,29.52,4.0,Calm,Calm,-,N/A,,Overcast,0,2012-10-31 08:03:00
4:24 AM,37.4,37.4,100,29.52,7.0,Calm,Calm,-,N/A,,Overcast,0,2012-10-31 08:24:00
4:45 AM,37.4,37.4,100,29.53,7.0,Calm,Calm,-,N/A,,Overcast,0,2012-10-31 08:45:00
5:06 AM,39.2,37.4,93,29.53,10.0,Calm,Calm,-,N/A,,Overcast,0,2012-10-31 09:06:00
5:27 AM,39.2,37.4,93,29.54,7.0,Calm,Calm,-,N/A,,Overcast,0,2012-10-31 09:27:00
5:48 AM,39.2,37.4,93,29.55,7.0,Calm,Calm,-,N/A,,Overcast,0,2012-10-31 09:48:00
6:09 AM,39.2,37.4,93,29.55,7.0,Calm,Calm,-,N/A,,Overcast,0,2012-10-31 10:09:00
6:30 AM,37.4,37.4,100,29.55,7.0,Calm,Calm,-,N/A,,Mostly Cloudy,0,2012-10-31 10:30:00
6:33 AM,37.4,37.4,100,29.55,7.0,Calm,Calm,-,N/A,,Mostly Cloudy,0,2012-10-31 10:33:00
6:54 AM,37.4,35.6,93,29.55,5.0,Calm,Calm,-,N/A,,Mostly Cloudy,0,2012-10-31 10:54:00
7:15 AM,37.4,35.6,93,29.55,5.0,Calm,Calm,-,N/A,,Mostly Cloudy,0,2012-10-31 11:15:00
7:36 AM,37.4,35.6,93,29.55,5.0,Calm,Calm,-,N/A,,Overcast,0,2012-10-31 11:36:00
7:57 AM,37.4,37.4,100,29.56,7.0,Calm,Calm,-,N/A,,Overcast,0,2012-10-31 11:57:00
8:18 AM,37.4,37.4,100,29.57,7.0,Calm,Calm,-,N/A,,Scattered Clouds,0,2012-10-31 12:18:00
8:39 AM,39.2,37.4,93,29.58,10.0,Calm,Calm,-,N/A,,Mostly Cloudy,0,2012-10-31 12:39:00
9:00 AM,39.2,37.4,93,29.59,10.0,Calm,Calm,-,N/A,,Overcast,0,2012-10-31 13:00:00
9:21 AM,41.0,39.2,93,29.59,10.0,Calm,Calm,-,N/A,,Overcast,0,2012-10-31 13:21:00
9:42 AM,42.8,41.0,93,29.59,10.0,Calm,Calm,-,N/A,,Overcast,0,2012-10-31 13:42:00
10:03 AM,44.6,41.0,87,29.59,10.0,SW,4.6,-,N/A,,Overcast,220,2012-10-31 14:03:00
10:24 AM,46.4,41.0,81,29.59,10.0,SSW,3.5,-,N/A,,Mostly Cloudy,200,2012-10-31 14:24:00
10:45 AM,46.4,39.2,76,29.59,10.0,South,4.6,-,N/A,,Overcast,170,2012-10-31 14:45:00
11:27 AM,48.2,37.4,66,29.60,10.0,SSW,3.5,-,N/A,,Scattered Clouds,210,2012-10-31 15:27:00
11:48 AM,48.2,37.4,66,29.59,10.0,WSW,6.9,-,N/A,,Mostly Cloudy,240,2012-10-31 15:48:00
12:12 PM,50.0,37.4,62,29.59,10.0,South,8.1,-,N/A,,Overcast,190,2012-10-31 16:12:00
12:33 PM,48.2,37.4,66,29.59,10.0,WSW,8.1,-,N/A,,Overcast,250,2012-10-31 16:33:00
12:54 PM,50.0,37.4,62,29.58,10.0,SW,11.5,-,N/A,,Overcast,220,2012-10-31 16:54:00
1:15 PM,51.8,37.4,58,29.58,10.0,WSW,9.2,-,N/A,,Overcast,240,2012-10-31 17:15:00
1:36 PM,53.6,35.6,51,29.57,10.0,WSW,13.8,17.3,N/A,,Overcast,250,2012-10-31 17:36:00
1:57 PM,51.8,35.6,54,29.57,10.0,West,8.1,-,N/A,,Overcast,270,2012-10-31 17:57:00
2:18 PM,53.6,35.6,51,29.57,10.0,WSW,5.8,9.2,N/A,,Mostly Cloudy,250,2012-10-31 18:18:00
2:39 PM,53.6,33.8,47,29.57,10.0,WSW,9.2,-,N/A,,Mostly Cloudy,250,2012-10-31 18:39:00
3:00 PM,51.8,35.6,54,29.57,10.0,West,10.4,-,N/A,,Overcast,260,2012-10-31 19:00:00
3:21 PM,51.8,35.6,54,29.58,10.0,West,8.1,-,N/A,,Overcast,270,2012-10-31 19:21:00
3:42 PM,51.8,35.6,54,29.58,10.0,West,5.8,-,N/A,,Overcast,260,2012-10-31 19:42:00
4:03 PM,51.8,35.6,54,29.58,10.0,West,8.1,-,N/A,,Overcast,260,2012-10-31 20:03:00
5:51 PM,46.4,41.0,81,29.61,10.0,Calm,Calm,-,N/A,,Overcast,0,2012-10-31 21:51:00
6:12 PM,46.4,41.0,81,29.62,10.0,West,3.5,-,N/A,,Overcast,260,2012-10-31 22:12:00
6:33 PM,46.4,41.0,81,29.63,10.0,Calm,Calm,-,N/A,,Overcast,0,2012-10-31 22:33:00
6:54 PM,46.4,42.8,87,29.63,10.0,SW,4.6,-,N/A,,Overcast,230,2012-10-31 22:54:00
7:15 PM,46.4,42.8,87,29.64,10.0,Calm,Calm,-,N/A,,Overcast,0,2012-10-31 23:15:00
7:36 PM,46.4,42.8,87,29.64,10.0,Calm,Calm,-,N/A,,Overcast,0,2012-10-31 23:36:00
7:57 PM,46.4,42.8,87,29.64,10.0,WSW,3.5,-,N/A,,Overcast,250,2012-10-31 23:57:00
8:18 PM,46.4,42.8,87,29.65,10.0,Calm,Calm,-,N/A,,Overcast,0,2012-11-01 00:18:00
8:39 PM,44.6,42.8,93,29.65,10.0,Calm,Calm,-,N/A,,Overcast,0,2012-11-01 00:39:00
9:00 PM,44.6,42.8,93,29.66,10.0,Calm,Calm,-,N/A,,Overcast,0,2012-11-01 01:00:00
9:21 PM,46.4,39.2,76,29.66,10.0,West,5.8,-,N/A,,Overcast,270,2012-11-01 01:21:00
9:42 PM,44.6,39.2,81,29.67,10.0,West,5.8,-,N/A,,Overcast,260,2012-11-01 01:42:00
10:03 PM,44.6,37.4,76,29.67,10.0,West,5.8,-,N/A,,Overcast,260,2012-11-01 02:03:00
10:24 PM,44.6,35.6,71,29.67,10.0,West,8.1,-,N/A,,Mostly Cloudy,260,2012-11-01 02:24:00
11:30 PM,42.8,37.4,81,29.66,10.0,West,3.5,-,N/A,,Overcast,270,2012-11-01 03:30:00
11:51 PM,42.8,37.4,81,29.66,10.0,Calm,Calm,-,N/A,,Overcast,0,2012-11-01 03:51:00